Home   Weather   Sindelfingen   Past weeks

Flag for Germany Past Weather in Sindelfingen, Baden-Württemberg, Germany — Yesterday and Last 2 Weeks

48 °F


Feels Like: 48 °F
Forecast: 47 / 64 °F
Wind: 2 mph from North

Location: Stuttgart-Echterdingen

Current Time: Oct 23, 2016 at 2:03:50 PM

Latest Report: Oct 23, 2016 at 1:20 PM

Visibility: 10 mi

Pressure: 29.86 "Hg

Humidity: 76%

Dew Point: 41 °F

Location of SindelfingenLocation

Past Weather in Sindelfingen — Graph


Sindelfingen Temperature Yesterday

Maximum temperature yesterday: 50 °F (at 12:50 PM)
Minimum temperature yesterday: 37 °F (at 1:50 AM)
Average temperature yesterday: 45 °F

High & Low Weather Summary for the Past Weeks

High68 °F (Oct 16, 3:50 PM)100% (Oct 9, 2:20 AM)30.24 "Hg (Oct 9, 2:20 AM)
Low32 °F (Oct 23, 6:20 AM)47% (Oct 12, 3:50 PM)29.65 "Hg (Oct 14, 5:50 PM)
Average47 °F84%30.04 "Hg
* Reported Oct 8 12:20 PM — Oct 23 12:50 PM, Sindelfingen, Weather by CustomWeather, © 2016

Note: Actual official high and low records may vary slightly from our data, if they occured in-between our weather recording intervals... More about our weather records


Sindelfingen Weather History for the Previous 24 Hours

Scroll right to see more
Time TempWeatherWind HumidityBarometerVisibility
12:50 PM
Sun, Oct 23
48 °FPassing clouds.3 mph76%29.86 "HgN/A
12:20 PM46 °FSunny.2 mph82%29.86 "Hg10 mi
11:50 AM45 °FScattered clouds.2 mph81%29.89 "HgN/A
11:20 AM43 °FFog.1 mph87%29.89 "HgN/A
10:50 AM39 °FFog.No wind100%29.89 "HgN/A
10:20 AM39 °FFog.No wind100%29.89 "HgN/A
9:50 AM37 °FFog.No wind100%29.89 "HgN/A
9:20 AM37 °FFog.No wind100%29.89 "HgN/A
8:50 AM36 °FFog.No wind100%29.89 "HgN/A
8:20 AM34 °FFog.No wind100%29.89 "Hg6 mi
7:50 AM34 °FSleet. Fog.No wind93%29.89 "Hg3 mi
7:20 AM32 °FSleet. Fog.No wind100%29.89 "Hg3 mi
6:50 AM32 °FSleet. Overcast.No wind100%29.89 "Hg3 mi
6:20 AM32 °FPassing clouds.No wind100%29.89 "Hg0 mi
5:50 AM34 °FSleet. Overcast.No wind100%29.89 "Hg1 mi
5:20 AM34 °FSleet. Overcast.No wind100%29.89 "Hg1 mi
4:50 AM34 °FPartly cloudy.No wind100%29.92 "Hg1 mi
4:20 AM34 °FPassing clouds.No wind100%29.92 "Hg1 mi
3:50 AM36 °FFog.No wind93%29.92 "Hg0 mi
3:20 AM36 °FPassing clouds.2 mph100%29.92 "Hg0 mi
2:50 AM34 °FPassing clouds.2 mph100%29.95 "Hg0 mi
2:20 AM36 °FFog.3 mph93%29.95 "Hg0 mi
1:50 AM36 °FFog.2 mph100%29.95 "Hg0 mi
1:20 AM37 °FPassing clouds.3 mph93%29.95 "Hg1 mi
12:50 AM37 °FFog.2 mph100%29.95 "Hg0 mi
12:20 AM37 °FFog.1 mph100%29.95 "Hg4 mi
11:50 PM
Sat, Oct 22
39 °FFog.1 mph93%29.95 "Hg4 mi
11:20 PM39 °FFog.3 mph100%29.95 "Hg6 mi
10:50 PM39 °FClear.3 mph100%29.95 "Hg10 mi
10:20 PM43 °FClear.2 mph93%29.95 "Hg10 mi
9:50 PM43 °FClear.2 mph93%29.95 "Hg10 mi
9:20 PM45 °FClear.1 mph87%29.95 "Hg10 mi
8:50 PM45 °FClear.No wind87%29.95 "Hg10 mi
8:20 PM45 °FClear.1 mph87%29.95 "Hg10 mi
7:50 PM46 °FClear.2 mph82%29.95 "Hg10 mi
7:20 PM46 °FPassing clouds.2 mph82%29.95 "HgN/A
6:50 PM48 °FPassing clouds.3 mph76%29.95 "HgN/A
6:20 PM48 °FPassing clouds.2 mph76%29.95 "HgN/A
5:50 PM50 °FPartly sunny.3 mph71%29.92 "HgN/A
5:20 PM50 °FPartly sunny.2 mph67%29.92 "HgN/A
4:50 PM50 °FPartly sunny.7 mph67%29.92 "HgN/A
4:20 PM50 °FBroken clouds.5 mph67%29.92 "HgN/A
3:50 PM50 °FPartly sunny.6 mph67%29.92 "HgN/A
3:20 PM50 °FPartly sunny.8 mph67%29.92 "HgN/A
2:50 PM50 °FBroken clouds.2 mph67%29.92 "HgN/A
2:20 PM50 °FBroken clouds.5 mph67%29.95 "HgN/A
Weather by CustomWeather, © 2016

See weather overviewHow to use our weather pages